Theta_e
339 343 320 316 313 312 312 312 312 312 313 313 313 312 312 312 313 314 316 315 316 319 320 320 322 323 330 331 331 332 332 332 333 341 344 343 342 343 343 344 344 350 346
337 343 318 314 314 313 313 313 314 314 315 316 316 315 315 315 315 316 319 322 320 325 332 333 333 333 332 332 332 332 334 334 331 328 337 343 344 342 343 343 344 348 348
337 342 325 314 315 315 314 314 315 316 317 318 318 318 318 319 319 317 318 324 331 332 334 335 336 336 335 334 332 333 333 333 335 329 327 334 343 345 342 342 343 346 347
338 342 339 315 316 317 316 316 317 317 318 320 320 320 320 321 322 323 324 328 334 336 336 336 337 339 338 336 335 333 333 334 335 335 326 321 329 343 343 341 342 343 346
337 344 341 323 317 318 318 317 317 318 319 321 321 322 323 324 325 327 329 334 335 337 337 337 336 339 340 338 337 335 334 333 335 333 327 323 328 337 339 341 343 341 343
336 342 341 334 317 319 320 319 319 319 319 321 322 323 324 325 326 328 330 335 337 338 339 338 338 337 339 337 337 337 336 335 333 329 327 328 332 336 337 338 341 344 342
336 338 344 339 320 319 321 321 320 320 320 321 323 325 326 328 329 330 336 340 339 339 339 338 338 336 337 337 336 337 334 336 335 334 329 331 332 330 329 334 341 344 343
336 336 339 340 332 319 321 323 322 321 321 322 323 325 328 329 331 337 339 338 339 339 339 339 335 334 334 335 336 336 334 331 335 336 335 336 332 331 329 328 340 341 342
335 336 336 347 339 328 321 323 323 322 322 322 324 326 327 326 331 340 337 335 332 331 334 334 336 336 334 336 335 334 334 334 333 334 335 336 336 332 328 324 338 342 341
336 335 337 339 348 345 340 328 325 324 323 323 324 327 326 326 335 331 328 328 329 329 329 330 333 335 335 336 335 334 334 334 332 332 333 335 336 333 326 325 339 341 342
334 336 335 336 340 343 339 340 331 328 326 326 329 329 328 335 333 335 335 333 329 326 323 326 330 331 333 334 333 332 333 331 330 330 329 333 334 333 329 330 338 340 341
333 335 336 336 339 341 338 338 345 341 340 339 337 335 340 336 334 335 334 331 329 324 324 323 329 329 330 331 331 330 332 329 328 328 330 332 332 332 326 335 335 339 339
331 334 336 337 337 340 339 337 344 342 340 339 338 337 336 335 335 336 334 334 334 334 333 332 332 333 330 331 330 332 332 329 328 330 330 331 331 329 326 335 335 337 338
332 332 336 337 339 341 339 336 339 341 339 338 338 339 337 335 336 336 334 333 333 332 332 331 330 330 331 330 330 330 332 329 327 328 331 331 329 328 324 335 336 336 337
333 332 333 337 341 344 342 337 339 339 337 338 337 336 336 335 335 335 335 335 334 332 333 330 329 330 330 329 330 330 330 328 330 329 329 330 329 325 320 334 336 336 340
332 333 333 338 341 345 344 342 341 339 337 337 335 333 336 337 335 335 335 335 334 334 333 333 330 330 330 329 329 329 330 329 329 330 329 329 328 324 316 328 335 336 339
331 333 335 338 340 345 346 344 341 339 337 336 334 333 335 337 336 336 335 337 335 332 333 331 332 331 331 329 328 329 330 330 329 328 328 328 330 327 315 326 327 332 336
332 334 335 337 342 345 346 345 342 338 337 333 332 334 337 337 336 336 336 337 336 335 334 334 331 331 331 329 327 328 329 329 329 330 329 328 327 332 330 327 325 329 331
332 334 337 339 340 346 347 345 342 338 336 333 332 334 334 335 335 335 337 336 336 335 335 333 332 332 331 329 328 330 330 329 329 329 328 328 327 331 331 332 323 327 329
333 335 339 339 341 346 346 346 341 337 335 333 333 333 333 335 335 335 337 336 335 335 333 332 333 331 330 329 329 329 330 330 328 327 328 327 328 329 331 333 329 329 329
334 336 339 342 341 346 346 344 339 336 335 333 333 333 335 336 334 335 336 335 333 333 333 332 331 329 330 330 330 330 330 329 329 327 327 328 329 329 332 332 335 334 337
336 339 340 339 343 345 345 341 337 335 334 333 332 334 336 335 335 334 335 333 333 333 331 330 330 329 329 330 330 330 333 330 328 327 328 327 330 331 332 333 331 336 340
337 339 339 339 342 345 341 337 334 334 334 334 333 334 334 334 333 334 333 332 332 331 330 330 329 329 329 328 329 330 332 330 328 328 328 330 331 333 332 333 336 337 339
338 339 340 342 343 340 335 335 336 335 332 332 334 331 332 333 332 331 332 332 331 330 330 330 329 328 328 329 329 330 330 329 332 331 330 330 332 333 335 335 336 337 338
338 339 342 342 338 336 336 335 333 331 332 332 331 333 334 334 332 330 331 330 329 330 330 330 329 328 328 329 330 329 328 329 326 335 331 333 333 333 336 335 338 338 338
338 341 340 338 338 336 335 335 334 333 332 331 332 332 333 332 331 330 329 329 329 330 330 329 329 328 330 331 329 329 328 329 329 329 336 338 335 336 335 338 337 336 336
Wind_Speed
14 24 31 29 26 22 20 17 14 12 10 8 6 6 6 5 3 3 3 3 2 1 1 2 3 3 3 2 3 3 3 4 5 4 5 4 6 7 6 5 5 7 9
17 25 32 29 27 23 20 18 14 12 10 8 6 4 4 4 4 4 3 3 3 2 2 3 3 4 4 4 4 4 4 4 6 7 7 6 7 9 9 8 7 6 9
18 24 30 30 27 24 22 19 16 13 11 8 6 5 5 4 4 4 5 5 5 5 4 4 4 5 5 5 5 5 5 5 6 8 9 8 12 10 12 10 10 8 10
20 24 28 31 29 25 22 20 17 14 12 10 8 7 7 6 6 6 7 7 7 7 7 6 7 8 7 7 6 7 6 6 7 8 9 12 12 12 8 14 10 9 12
19 22 26 30 30 26 23 21 18 15 13 12 11 10 9 9 10 10 9 9 10 10 10 9 10 11 10 9 8 8 8 9 9 9 10 11 10 8 8 12 11 11 14
19 22 25 29 31 27 25 22 19 16 14 14 12 11 11 11 13 13 12 11 12 13 13 13 13 13 11 9 9 10 10 10 11 11 11 10 9 5 6 9 11 13 15
15 18 20 27 31 29 27 23 20 18 16 15 14 12 11 12 13 12 13 13 14 16 17 16 18 17 13 11 9 8 10 11 11 12 11 10 10 16 13 10 11 13 18
15 18 20 24 28 30 29 25 23 20 18 16 14 12 12 12 13 14 15 16 14 15 15 15 16 14 15 12 11 9 11 10 12 14 14 9 12 11 11 12 12 12 17
15 19 19 18 26 31 30 28 25 22 20 18 15 14 12 13 13 16 15 15 15 15 15 15 14 14 14 14 13 12 13 10 12 15 12 14 9 12 13 12 10 12 17
15 18 19 19 19 22 24 30 27 24 21 18 17 15 14 14 15 17 17 16 15 13 13 14 14 14 14 15 14 14 14 12 14 15 16 15 12 9 8 10 9 11 16
14 16 18 21 21 22 23 23 28 25 22 19 17 16 14 12 13 13 14 13 14 16 13 11 11 12 16 18 19 19 16 16 17 17 17 20 15 12 10 9 9 10 14
17 18 21 22 22 22 23 23 21 20 18 16 16 14 11 12 13 11 9 14 17 13 11 11 10 12 12 13 17 19 16 17 19 20 14 14 14 13 10 9 11 10 13
21 17 21 24 26 24 24 23 18 20 19 18 17 16 14 12 12 12 12 12 10 14 8 11 12 12 12 13 10 11 18 17 19 15 9 11 14 13 11 10 11 12 13
19 17 20 24 28 26 24 25 21 20 20 18 17 16 14 13 13 13 13 13 10 11 11 9 11 11 7 10 13 15 12 11 15 17 12 11 12 11 14 12 12 12 14
21 20 16 28 29 28 28 25 24 22 20 18 16 15 15 15 13 13 13 12 13 12 12 10 12 7 9 13 15 14 14 16 8 15 14 10 15 13 16 14 13 13 12
22 19 17 27 30 31 30 23 25 21 19 19 16 15 15 14 13 13 14 15 16 14 15 13 11 12 12 15 13 13 14 15 15 15 13 15 16 10 16 16 14 14 13
21 18 17 24 31 32 31 29 26 24 22 19 16 14 14 13 13 13 16 14 17 17 16 17 14 13 14 16 14 13 12 16 16 13 13 16 18 12 15 16 16 14 13
17 17 18 24 31 32 30 29 27 24 23 20 15 14 14 13 13 14 17 15 16 15 15 15 16 14 15 16 17 12 13 13 16 12 15 15 15 15 14 17 15 14 13
21 18 20 24 29 31 28 28 26 21 21 18 15 13 13 13 13 15 16 16 15 12 11 13 14 16 15 14 13 8 10 13 14 17 19 14 15 10 15 16 16 15 15
18 16 18 24 25 28 26 24 24 21 19 16 13 13 11 12 11 13 14 14 12 11 12 13 14 15 14 14 11 7 12 14 16 16 11 14 14 14 15 16 15 15 14
14 15 18 21 24 27 25 25 24 22 18 14 12 11 11 11 11 12 12 12 13 12 13 12 12 13 13 12 7 7 9 11 10 15 16 15 17 14 14 15 13 16 12
11 15 19 22 24 27 24 23 20 17 15 13 11 10 9 10 11 12 10 12 12 11 12 11 12 13 12 12 8 9 4 7 14 16 20 14 13 15 14 16 16 10 11
14 17 20 21 24 24 21 18 14 12 8 7 9 10 11 7 9 9 10 10 9 10 8 10 12 13 12 13 15 7 4 6 9 15 16 16 13 16 16 18 14 12 14
15 17 19 22 25 22 22 19 17 14 11 9 4 3 3 5 6 6 7 8 7 7 6 8 10 11 14 13 13 18 12 6 5 7 8 14 16 17 16 16 15 15 18
16 18 22 24 24 24 19 17 15 10 7 4 4 2 4 3 5 7 5 6 6 4 5 5 5 7 10 12 14 15 15 12 15 6 8 11 13 15 13 13 11 16 21
19 22 24 26 23 21 18 15 10 7 4 4 4 4 5 4 5 5 5 4 3 3 4 5 4 5 5 6 10 12 9 9 6 6 3 7 8 9 10 10 14 21 28
Wind_Direction
141 164 176 174 176 177 174 174 169 171 172 176 174 174 176 187 208 222 205 205 221 222 227 245 268 273 269 275 277 278 272 267 259 246 228 234 239 231 219 213 201 186 174
151 166 179 177 180 180 177 177 178 179 183 187 187 192 200 198 207 216 233 239 239 240 217 234 263 269 272 264 260 256 266 262 262 263 253 248 248 235 235 224 220 216 190
157 167 179 182 184 184 183 184 185 190 195 201 207 216 229 238 241 250 249 250 242 239 240 241 241 255 263 259 258 259 257 268 272 263 262 258 243 230 233 230 226 205 194
162 169 177 185 188 189 190 190 193 199 205 213 225 236 246 253 260 268 272 264 254 251 257 261 261 248 241 251 255 256 255 254 262 273 266 249 251 221 238 230 224 218 193
168 174 181 189 192 194 196 199 201 206 213 220 231 243 249 258 266 269 270 266 265 263 262 262 262 262 247 240 238 246 250 249 255 267 261 248 248 244 243 231 224 215 204
178 180 190 197 194 198 200 205 205 212 221 229 239 247 257 262 268 272 272 265 266 264 261 263 262 259 259 260 254 245 253 253 260 260 251 242 238 245 252 236 222 210 206
190 188 191 206 201 202 204 208 211 214 223 233 242 249 260 268 271 273 269 265 266 265 266 265 264 258 253 257 256 260 258 255 259 257 251 237 244 233 257 246 230 217 207
199 194 190 210 209 208 209 212 215 217 224 235 245 254 264 275 279 274 271 268 268 268 270 273 275 266 257 251 256 252 257 257 255 259 261 267 234 235 250 250 237 229 211
218 196 200 198 211 215 213 216 219 221 226 233 242 250 261 272 271 273 269 267 268 267 268 269 271 270 258 249 251 256 258 253 250 257 246 265 269 253 247 241 244 230 212
227 208 212 203 206 207 212 219 222 225 229 232 238 245 255 269 267 268 273 278 270 267 270 267 264 262 258 250 248 249 251 248 247 249 241 236 242 225 234 231 247 238 214
263 220 214 211 206 209 210 219 224 226 228 230 232 240 251 263 269 252 254 250 270 273 270 267 263 260 254 254 252 248 243 247 243 238 244 221 226 229 239 236 248 249 221
236 232 220 211 207 208 212 210 208 215 218 220 227 233 239 252 260 266 267 275 286 270 266 257 248 251 252 247 244 231 229 237 235 240 241 192 213 236 237 243 248 255 237
277 226 225 199 201 208 209 205 207 211 211 218 224 229 236 247 258 261 265 261 245 250 257 243 238 228 235 250 264 229 226 218 226 238 247 216 203 223 242 245 246 249 250
260 258 212 208 196 202 209 206 209 209 207 212 220 224 232 238 244 249 266 272 257 260 265 264 260 251 266 275 266 259 267 238 214 225 237 212 228 248 239 240 242 245 252
262 262 246 199 193 197 210 208 205 211 207 212 219 222 225 237 244 256 263 265 266 264 266 265 268 272 262 256 255 245 253 248 255 209 221 244 254 254 230 233 236 240 248
261 256 242 196 194 195 203 214 198 205 208 210 219 228 222 234 245 256 261 249 253 255 252 259 259 263 260 259 247 245 230 235 253 210 211 233 233 253 231 232 233 234 236
258 254 235 202 191 192 200 207 200 201 204 209 218 225 229 231 246 257 264 263 257 251 249 247 254 259 255 259 248 232 219 221 220 227 232 235 219 236 223 229 227 227 230
260 255 222 210 194 192 198 203 204 202 199 209 215 224 224 237 247 261 263 268 263 251 244 245 237 244 252 255 253 230 220 222 218 214 218 231 236 219 221 217 217 219 228
253 247 230 208 197 192 198 199 201 204 197 205 212 222 232 240 250 259 265 269 266 255 240 242 237 232 247 246 268 228 224 224 213 214 221 216 238 242 222 207 206 218 234
243 236 217 203 194 189 196 196 198 197 201 206 210 225 236 247 257 262 267 266 263 252 245 240 235 231 234 243 251 238 229 218 230 231 232 218 223 218 233 189 200 220 229
247 220 202 182 189 184 194 194 194 190 197 201 213 225 241 253 266 267 265 260 252 247 248 245 238 232 232 239 229 234 233 238 228 209 220 219 223 216 214 231 200 199 198
208 195 189 187 181 181 187 193 193 194 192 200 212 219 236 260 269 268 252 256 254 253 242 234 231 233 233 223 205 207 197 219 228 224 221 221 209 218 209 220 213 214 179
193 185 183 178 174 180 177 178 166 178 172 186 215 229 233 244 265 255 260 255 254 246 250 239 234 228 228 220 214 208 181 212 190 202 219 215 203 215 213 219 215 211 188
182 171 168 166 165 166 159 163 167 177 196 199 204 261 270 249 269 267 260 240 225 237 240 243 237 229 220 217 206 225 242 240 193 180 207 228 218 213 212 214 213 205 189
160 159 154 154 159 150 165 162 169 195 178 196 209 211 226 240 249 253 212 212 224 233 242 234 221 211 214 204 201 209 210 224 212 240 175 201 213 219 211 207 198 179 169
152 150 150 152 149 155 153 154 181 158 161 180 205 262 182 223 223 230 209 212 228 237 228 220 194 196 210 208 209 235 207 225 243 204 166 180 188 195 194 184 170 172 162